Hourly Data Report for November 13, 2020

VICTORIA UNIVERSITY CS
BRITISH COLUMBIA
Current Station Operator: ECCC - MSC

48°27'25.200" N
123°18'16.600" W
60.10 m
1018598
71783
WYJ

Download Data

Hourly Data (November 2020)
Hourly Data Report for November 13, 2020
TIME
LST
Temp Definition
°C
Dew Point Definition
°C
Rel Hum Definition
%
Precip. Amount Definition
mm

Wind Dir Definition
10's deg

Wind Spd Definition
km/h
Visibility Definition
km
Stn Press Definition
kPa
Hmdx Definition


Wind Chill Definition


Weather Definition


00:00 5.8 5.8 100 2.1 0 1   98.98     LegendNANA
01:00 6.3 6.2 100 1.0 11 1   98.71     LegendNANA
02:00 6.4 6.1 98 1.7 14 1   98.44     LegendNANA
03:00 6.7 6.4 98 2.3 16 4   98.22     LegendNANA
04:00 6.9 6.3 96 0.6 15 5   98.02     LegendNANA
05:00 6.2 6.1 100 1.5 25 4   97.98     LegendNANA
06:00 5.9 5.9 100 2.0 17 5   97.91     LegendNANA
07:00 6.4 6.4 100 0.0 21 3   97.93     LegendNANA
08:00 7.1 7.0 100 0.0 20 5   98.02     LegendNANA
09:00 7.4 6.2 92 0.0 24 14   98.04     LegendNANA
10:00 8.7 5.1 78 0.0 25 25   98.12     LegendNANA
11:00 9.4 4.0 69 0.2 25 26   98.34     LegendNANA
12:00 9.8 3.8 66 0.0 25 21   98.51     LegendNANA
13:00 10.3 3.6 63 0.0 25 17   98.67     LegendNANA
14:00 8.8 2.4 64 0.0 26 16   98.86     LegendNANA
15:00 8.8 2.4 64 0.0 25 16   99.01     LegendNANA
16:00 7.8 2.5 69 0.0 25 20   99.16     LegendNANA
17:00 7.0 2.9 75 0.0 24 17   99.30     LegendNANA
18:00 6.5 2.2 74 0.0 25 15   99.45     LegendNANA
19:00 6.1 2.7 79 0.0 25 16   99.57     LegendNANA
20:00 6.3 2.3 76 0.0 26 12   99.73     LegendNANA
21:00 5.9 3.2 83 0.0 25 11   99.87     LegendNANA
22:00 5.9 2.9 81 0.0 25 10   100.05     LegendNANA
23:00 5.5 2.7 82 0.0 24 13   100.18     LegendNANA

Notes on Data Quality.

Legend

  • E = Estimated
  • M = Missing
  • NA = Not Available*
  • [empty] = Indicates an unobserved value
Date modified: